EHI
3 3 3 3 3 2 3 2 1 0 0 0 0 0 0 0 0 0 0 1 2 2 1 0 0 0 0 0 0 0 0 0 0 0 0 0 0 0 0 0 0 0 0
3 3 3 3 3 3 3 2 1 0 0 0 0 0 0 0 0 0 0 0 1 1 0 0 0 0 0 0 0 0 0 0 0 0 0 0 0 0 0 0 0 0 0
3 3 3 3 3 3 3 1 0 0 0 0 0 0 0 0 0 0 0 0 0 0 0 0 0 0 0 0 0 0 0 0 0 0 0 0 0 0 0 0 0 0 0
1 2 3 3 3 3 2 1 0 0 0 0 0 0 0 0 0 0 0 0 0 0 0 0 0 0 0 0 0 0 0 0 0 0 0 0 0 0 0 0 0 0 0
0 1 2 3 3 3 2 1 0 0 0 0 0 0 0 0 0 0 0 0 0 0 0 0 0 0 0 0 0 0 0 0 0 0 0 0 0 0 0 0 0 0 0
0 0 1 2 3 3 3 1 0 0 0 0 0 0 0 0 0 0 0 0 0 0 0 0 0 0 0 0 0 0 0 0 0 0 0 0 0 0 0 0 0 0 0
0 0 0 1 2 3 3 2 1 0 0 0 0 0 0 0 0 0 0 0 0 0 0 0 0 0 0 0 0 0 0 0 0 0 0 0 0 0 0 0 0 0 0
0 0 0 0 1 2 3 2 1 0 0 0 0 0 0 0 0 0 0 0 0 0 0 0 0 0 0 0 0 0 0 0 0 0 0 0 0 0 0 0 0 0 0
0 0 0 0 0 1 2 1 0 0 0 0 0 0 0 0 0 0 0 0 0 0 0 0 0 0 0 0 0 0 0 0 0 0 0 0 0 0 0 0 0 0 0
0 0 0 0 0 0 0 0 0 0 0 0 0 0 0 0 0 0 0 0 0 0 0 0 0 0 0 0 0 0 0 0 0 0 0 0 0 0 0 0 0 0 0
0 0 0 0 0 0 0 0 0 0 0 0 0 0 0 0 0 0 0 0 0 0 0 0 0 0 0 0 0 0 0 0 0 0 0 0 0 0 0 0 0 0 0
0 0 0 0 0 0 0 0 0 0 0 0 0 0 0 0 0 0 0 0 0 0 0 0 0 0 0 0 0 0 0 0 0 0 0 0 0 0 0 0 0 0 0
0 0 0 0 0 0 0 0 0 0 0 0 0 0 0 0 0 0 0 0 0 0 0 0 0 0 0 0 0 0 0 0 0 0 0 0 0 0 0 0 0 0 0
0 0 0 0 0 0 0 0 0 0 0 0 0 0 0 0 0 0 0 0 0 0 0 0 0 0 0 0 0 0 0 0 0 0 0 0 0 0 0 0 0 0 0
0 0 0 0 0 0 0 0 0 0 0 0 0 0 0 0 0 0 0 0 0 0 0 0 0 0 0 0 0 0 0 0 0 0 0 0 0 0 0 0 0 0 0
0 0 0 0 0 0 0 0 0 0 0 0 0 0 0 0 0 0 0 0 0 0 0 0 0 0 0 0 0 0 0 0 0 0 0 0 0 0 0 0 0 0 0
0 0 0 0 0 0 0 0 0 0 0 0 0 0 0 0 0 0 0 0 0 0 0 0 0 0 0 0 0 0 0 0 0 0 0 0 0 0 0 0 0 0 0
0 0 0 0 0 0 0 0 0 0 0 0 0 0 0 0 0 0 0 0 0 0 0 0 0 0 0 0 0 0 0 0 0 0 0 0 0 0 0 0 0 0 0
0 0 0 0 0 0 0 0 0 0 0 0 0 0 0 0 0 0 0 0 0 0 0 0 0 0 0 0 0 0 0 0 0 0 0 0 0 0 0 0 0 0 0
0 0 0 0 0 0 0 0 0 0 0 0 0 0 0 0 0 0 0 0 0 0 0 0 0 0 0 0 0 0 0 0 0 0 0 0 0 0 0 0 0 0 0
0 0 0 0 0 0 0 0 0 0 0 0 0 0 0 0 0 0 0 0 0 0 0 0 0 0 0 0 0 0 0 0 0 0 0 0 0 0 0 0 0 0 0
0 0 0 0 0 0 0 0 0 0 0 0 0 0 0 0 0 0 0 0 0 0 0 0 0 0 0 0 0 0 0 0 0 0 0 0 0 0 0 0 0 0 0
0 0 0 0 0 0 0 0 0 0 0 0 0 0 0 0 0 0 0 0 0 0 0 0 0 0 0 0 0 0 0 0 0 0 0 0 0 0 0 0 0 0 0
0 0 0 0 0 0 0 0 0 0 0 0 0 0 0 0 0 0 0 0 0 0 0 0 0 0 0 0 0 0 0 0 0 0 0 0 0 0 0 0 0 0 0
0 0 0 0 0 0 0 0 0 0 0 0 0 0 0 0 0 0 0 0 0 0 0 0 0 0 0 0 0 0 0 0 0 0 0 0 0 0 0 0 0 0 0
0 0 0 0 0 0 0 0 0 0 0 0 0 0 0 0 0 0 0 0 0 0 0 0 0 0 0 0 0 0 0 0 0 0 0 0 0 0 0 0 0 0 0
Wind_Speed
1 1 1 1 1 1 1 1 1 2 2 3 3 3 3 3 3 3 3 6 7 7 7 7 7 7 7 6 5 5 5 5 5 6 6 6 6 6 6 7 7 8 8
2 2 2 2 1 2 2 2 2 2 2 2 2 3 3 3 3 3 3 4 7 7 8 8 8 8 7 7 6 6 6 6 5 5 5 6 7 7 7 7 8 8 9
2 2 2 2 2 2 2 2 2 1 1 1 2 2 2 3 3 3 3 3 3 6 7 8 8 8 8 7 6 6 6 6 6 6 6 6 7 7 8 8 8 9 9
2 2 2 3 2 2 2 2 2 1 1 1 2 2 2 2 3 4 3 3 3 3 4 6 7 7 7 7 7 7 7 6 6 6 6 6 7 7 8 8 9 9 10
2 3 3 2 2 2 2 3 2 2 2 2 2 2 2 2 3 3 4 4 4 3 3 4 5 6 6 7 7 7 7 7 7 7 7 6 7 7 8 9 9 9 10
2 2 2 3 3 2 2 2 2 2 2 2 1 2 2 3 3 3 4 3 3 4 3 3 3 4 6 7 7 8 8 8 7 7 7 7 7 8 8 9 9 10 10
2 2 2 2 3 3 3 3 2 2 1 1 0 2 3 3 2 3 3 3 3 3 3 4 3 3 3 6 7 8 9 8 8 7 7 7 8 8 8 9 9 9 10
2 2 2 3 3 3 3 3 2 1 1 2 1 0 2 2 2 2 2 2 3 2 3 3 3 2 2 2 4 6 8 9 8 8 8 8 8 9 9 9 9 9 10
3 3 2 3 3 3 3 3 4 3 2 2 2 2 2 3 2 2 2 2 2 2 2 2 3 3 2 2 2 5 7 8 9 8 8 8 9 9 10 9 9 9 10
3 3 2 2 2 2 3 3 3 3 4 3 2 2 2 2 2 2 2 2 2 3 3 2 3 3 3 2 3 4 6 8 9 9 9 9 9 10 10 9 9 9 10
3 3 2 2 2 2 3 3 2 3 3 4 3 2 1 2 2 2 4 3 2 2 2 3 3 3 3 3 3 4 6 7 8 9 9 9 10 10 10 9 9 9 10
2 2 2 2 2 3 3 3 3 4 3 3 3 2 2 2 3 3 3 3 3 3 2 2 2 2 3 2 3 4 6 7 8 8 9 9 9 10 10 9 9 9 10
2 2 2 2 2 2 3 3 3 3 3 4 3 3 2 3 2 2 3 2 2 2 3 2 2 2 2 2 3 5 6 7 7 7 8 8 8 9 9 9 9 9 10
2 2 3 2 2 3 2 2 2 3 3 3 3 3 2 3 2 3 3 2 2 3 3 4 2 2 2 2 3 4 4 6 6 7 7 7 7 7 7 8 9 9 10
2 2 2 2 2 2 2 2 2 2 2 2 2 2 2 2 2 2 2 3 3 3 4 3 2 1 1 1 3 2 3 5 6 6 6 6 6 6 7 8 8 9 9
2 2 2 2 2 2 2 2 2 2 2 2 2 2 2 2 2 2 2 2 3 4 4 2 2 1 1 1 2 2 2 5 5 5 5 5 5 5 6 7 8 9 9
3 3 3 2 2 2 2 2 2 1 1 1 1 1 2 2 1 2 2 2 2 2 3 2 1 1 0 1 2 1 1 2 1 3 4 5 5 6 6 7 8 9 9
3 3 3 2 2 2 2 2 2 1 1 1 1 1 2 1 2 1 1 2 2 2 3 3 1 1 1 2 2 2 1 1 1 3 4 5 5 5 6 7 8 9 9
2 2 2 2 2 2 2 2 2 1 1 2 1 1 1 1 1 2 1 1 1 1 1 2 2 1 1 1 1 1 1 1 1 2 4 4 4 5 6 7 8 8 8
2 2 2 2 1 2 2 1 1 1 1 1 1 1 1 1 1 2 1 1 1 0 1 1 1 1 1 1 0 1 1 1 1 2 3 3 4 6 7 7 7 8 8
2 2 1 1 1 1 1 1 2 1 1 0 0 1 1 1 2 2 1 0 1 1 1 1 1 1 1 0 1 1 1 1 1 1 1 1 2 2 3 5 6 7 8
1 1 1 1 1 1 1 1 2 2 2 1 0 1 1 1 2 3 3 2 0 1 1 1 1 2 2 1 1 1 0 1 1 1 1 2 1 2 2 2 5 7 7
0 1 1 1 1 1 1 1 2 2 2 1 1 1 1 2 2 2 2 3 2 1 1 0 1 2 1 1 0 1 1 1 2 2 1 3 2 2 2 3 6 7 8
0 0 0 0 0 1 1 1 3 2 2 1 0 0 0 1 1 2 2 2 2 2 1 1 1 1 1 0 0 0 0 0 1 1 0 2 2 3 3 2 5 6 8
0 0 0 0 0 0 0 2 3 2 2 1 1 1 1 1 1 2 2 2 2 2 3 3 2 2 3 2 2 1 0 0 1 2 1 0 1 3 3 2 3 6 8
1 1 1 1 1 1 1 1 2 2 2 1 1 1 1 2 2 2 1 1 1 2 2 3 3 4 3 3 3 1 1 1 1 1 1 1 1 3 3 2 2 3 4
Wind_Direction
194 191 195 198 207 189 187 194 208 224 232 234 234 225 225 229 225 225 230 229 231 233 234 236 237 237 238 240 245 243 248 258 262 264 271 278 278 276 278 284 277 271 269
202 197 196 198 212 208 203 200 208 221 240 238 236 232 228 226 229 228 231 232 231 233 237 239 237 238 241 244 245 247 248 256 265 270 277 284 287 284 285 288 285 279 274
217 205 201 204 212 214 205 202 212 213 234 257 258 252 241 228 227 225 227 232 233 237 240 243 242 245 245 246 247 256 254 259 267 272 276 282 289 291 293 296 296 289 283
230 210 210 220 216 204 199 198 200 212 238 248 260 261 264 254 241 229 223 223 227 238 242 239 242 249 250 251 257 260 257 257 266 271 274 278 285 289 291 297 298 296 290
242 217 214 227 216 202 205 209 205 202 227 245 262 270 263 250 251 244 230 224 222 223 228 235 240 246 254 258 263 263 265 258 263 267 272 277 284 287 290 293 296 296 294
257 236 223 215 207 201 211 213 210 213 215 224 272 300 292 273 254 244 237 231 222 219 219 221 228 242 252 262 268 269 271 262 261 265 272 276 281 286 289 293 296 297 296
252 239 251 224 211 205 210 213 207 201 217 191 353 325 312 291 262 251 238 232 232 224 213 216 220 225 243 254 266 273 275 273 265 266 269 275 282 285 288 290 294 295 297
256 257 242 237 225 213 208 206 190 194 235 198 180 300 300 306 294 273 255 238 239 234 224 222 219 222 232 241 273 277 279 280 271 269 270 274 278 280 283 288 290 294 296
253 248 240 241 234 217 213 212 200 199 214 239 204 188 205 236 294 283 261 252 245 245 244 232 221 220 229 232 247 268 275 283 279 276 277 280 282 281 283 287 288 293 298
251 249 238 240 236 236 225 218 209 222 201 218 246 243 237 223 226 279 287 280 271 251 241 239 226 225 224 232 244 258 270 281 279 280 282 284 285 284 284 286 289 295 302
258 261 250 235 234 237 234 227 225 225 215 217 223 239 257 273 243 225 263 278 285 266 247 234 226 225 227 230 237 252 267 276 275 278 280 282 285 287 287 288 294 301 304
281 276 275 249 240 234 232 224 222 224 227 225 230 229 232 230 233 224 239 254 268 276 269 247 233 228 224 224 244 265 272 272 270 275 279 282 286 290 291 291 297 303 305
278 274 274 269 262 255 243 226 221 229 225 221 228 238 246 252 244 232 229 245 260 277 276 262 240 237 228 223 245 269 274 275 272 276 283 287 291 295 297 298 302 305 306
250 256 263 265 272 267 260 233 220 231 227 227 237 238 246 253 244 233 219 211 253 270 265 256 249 239 234 230 248 264 261 273 277 280 285 290 294 296 301 307 309 310 312
254 254 254 249 259 261 255 243 230 232 231 234 240 244 251 258 249 243 230 208 210 240 257 246 232 233 239 239 258 263 249 272 276 278 285 290 295 302 309 313 316 318 320
246 253 254 238 247 255 253 250 245 236 229 240 240 248 267 269 262 248 238 229 219 220 243 239 232 239 247 284 286 264 242 278 274 282 288 295 303 311 315 318 323 324 323
243 247 238 231 243 255 255 247 250 237 223 249 259 246 267 278 268 266 258 235 226 212 238 263 250 272 240 269 293 279 256 244 249 295 307 310 317 319 319 324 325 325 324
246 238 238 233 247 253 248 239 239 239 220 232 251 260 274 290 287 280 261 242 228 213 210 237 259 268 249 248 257 262 281 278 265 314 314 314 316 319 327 331 334 331 330
224 238 240 230 245 249 251 243 211 225 224 225 231 247 270 280 286 292 290 270 222 210 190 207 249 268 276 265 265 279 295 313 324 332 326 315 321 327 331 330 331 333 335
216 234 244 232 237 243 240 213 165 170 196 233 253 258 271 253 257 276 279 245 182 152 181 210 246 274 286 300 245 284 324 356 330 335 326 318 328 331 327 326 331 337 336
242 237 239 245 241 226 207 149 150 155 150 112 2 312 293 318 305 291 278 206 170 165 184 218 267 308 293 286 285 293 303 338 332 322 330 319 321 315 318 320 332 338 335
242 229 221 235 244 260 239 183 138 143 133 129 58 360 340 345 343 334 331 334 263 178 181 189 276 261 264 261 295 283 321 349 328 358 2 312 322 311 308 303 330 339 342
225 222 232 235 242 238 257 181 120 112 122 122 108 22 347 356 3 2 1 7 7 8 318 284 231 260 261 258 228 9 344 315 286 302 338 310 320 302 300 323 334 338 344
159 206 230 222 297 242 270 129 101 92 103 93 91 155 67 345 350 13 35 29 19 16 4 11 187 259 277 221 183 185 214 334 314 314 327 291 310 308 317 323 335 339 343
48 21 25 38 43 220 92 87 81 108 102 87 48 43 47 18 347 358 42 49 24 14 21 34 33 26 14 8 7 62 57 14 324 317 337 297 311 321 321 323 334 345 346
85 45 24 12 32 127 91 66 71 114 111 91 47 24 20 9 352 348 37 82 41 2 21 33 37 31 24 27 12 4 225 233 273 300 321 342 314 338 329 320 325 334 336